Location: *
(17.3280°S, 114.7300°W)
Time: 14:32:14
(UTC+00:00)

Hubble Space Telescope - Pass Details

Date: 01 November 2020
Orbit: 536 x 540 km, 28.5° (Epoch: 29 November)

Event Time Altitude Azimuth Distance (km) Brightness Sun altitude
Exits shadow 11:13:51 67° 111° (ESE) 583 1.0 -24.6°
Drops below altitude 10° 11:17:37 10° 71° (ENE) 1,789 4.0 -23.8°
Sets 11:19:53 0° 69° (ENE) 2,677 5.0 -23.3°
